Location: Arbon
(43.0005°N, 0.7472°E)
Time: 11:35:15
(UTC+00:00)

SL-16 R/B - Pass Details

Date: 22 April 2026
Orbit: 839 x 849 km, 71.0° (Epoch: 15 May)

Event Time Altitude Azimuth Distance (km) Brightness Sun altitude
Rises 19:07:29 0° 166° (SSE) 3,379 5.0 -4.3°
Reaches altitude 10° 19:10:22 10° 152° (SSE) 2,451 4.2 -4.7°
Maximum altitude 19:14:42 23° 101° (E) 1,707 3.2 -5.5°
Drops below altitude 10° 19:19:04 10° 51° (NE) 2,470 4.4 -6.2°
Sets 19:21:58 0° 37° (NE) 3,412 5.2 -6.7°
